This is the latest recevied weather packets stored in our database for station/object KD0SBN. If no packets are shown the sender has not sent any weather packets the latest 10 day(s).
| Time | Temp. | Humidity | Pressure | Rain* | Wind** | Luminosity | Snow |
|---|---|---|---|---|---|---|---|
| 1778255473 | 18.89° C | 47% | 1016.4 hPa | 0 mm | - | - | - |
| 1778255169 | 18.33° C | 45% | 1016.4 hPa | 0 mm | - | - | - |
| 1778254866 | 18.33° C | 46% | 1016.5 hPa | 0 mm | - | - | - |
| 1778254563 | 17.78° C | 47% | 1016.4 hPa | 0 mm | - | - | - |
| 1778254260 | 17.78° C | 47% | 1016.6 hPa | 0 mm | - | - | - |
| 1778253957 | 18.33° C | 47% | 1016.6 hPa | 0 mm | - | - | - |
| 1778253652 | 18.33° C | 47% | 1016.5 hPa | 0 mm | - | - | - |
| 1778253349 | 17.78° C | 48% | 1016.5 hPa | 0 mm | - | - | - |
| 1778253046 | 17.78° C | 47% | 1016.4 hPa | 0 mm | - | - | - |
| 1778252743 | 17.78° C | 48% | 1016.5 hPa | 0 mm | - | - | - |
| 1778252438 | 17.78° C | 49% | 1016.5 hPa | 0 mm | - | - | - |
| 1778252136 | 17.22° C | 50% | 1016.6 hPa | 0 mm | - | - | - |
| 1778251832 | 16.67° C | 52% | 1016.6 hPa | 0 mm | - | - | - |
| 1778251530 | 17.78° C | 48% | 1016.5 hPa | 0 mm | - | - | - |
| 1778251227 | 17.78° C | 45% | 1016.3 hPa | 0 mm | - | - | - |
| 1778250925 | 17.78° C | 45% | 1015.8 hPa | 0 mm | - | - | - |
| 1778250621 | 17.22° C | 46% | 1015.8 hPa | 0 mm | - | - | - |
| 1778250318 | 17.22° C | 46% | 1015.8 hPa | 0 mm | - | - | - |
| 1778250014 | 16.67° C | 49% | 1015.6 hPa | 0 mm | - | - | - |
| 1778249711 | 16.67° C | 48% | 1015.7 hPa | 0 mm | - | - | - |
| 1778249409 | 16.11° C | 49% | 1015.7 hPa | 0 mm | - | - | - |
| 1778249106 | 16.11° C | 52% | 1015.7 hPa | 0 mm | - | - | - |
| 1778248801 | 15.56° C | 51% | 1015.6 hPa | 0 mm | - | - | - |
| 1778248498 | 15.56° C | 51% | 1015.6 hPa | 0 mm | - | - | - |
| 1778248194 | 15.56° C | 52% | 1015.6 hPa | 0 mm | - | - | - |
* Rain latest hour (hover to see other rain measurements)
** Current wind speed in m/s (hover to see current wind gust speed)